Location: Arrodets-la-Barthe
(43.0306°N, 0.2829°E)
Time: 18:20:35
(UTC+00:00)

Cosmos 614 Rocket - Pass Details

Date: 24 October 2021
Orbit: 733 x 763 km, 74.1° (Epoch: 02 December)

Event Time Altitude Azimuth Distance (km) Brightness Sun altitude
Rises 18:39:36 0° 340° (NNW) 3,172 7.5 -18.5°
Reaches altitude 10° 18:41:57 10° 341° (NNW) 2,248 6.7 -18.9°
Maximum altitude 18:47:03 84° 69° (ENE) 748 3.8 -19.8°
Enters shadow 18:51:33 13° 159° (SSE) 2,016 5.9 -20.7°
